Starlink 1788

operational
NORAD ID: 46689 Int'l Des: 2020-073 Owner: SPXS Country: US Constellation: starlink
LEOCIRCULARSTARLINK_TYPE

About Starlink 1788

Description loading...

Live Position

Loading 3D Globe...

Upcoming Passes

Altitude History

Altitude vs Time

uPlot chart will show altitude changes over time

Two-Line Element Set

1 46689U 20073V 25298.00002315 .02143284 00000-0 98467-1 0 9991
2 46689 53.0543 146.2163 0001850 80.4310 16.0722 15.16612877 5702
Epoch: Oct 25, 2025 • Age: 5 hours

Current Status

Altitude 528.6 km
Velocity 7.60 km/s
Sub-Earth Point -41.98°S, 106.74°W
Launch Date Oct 18, 2020
Age 5 years
Type internet

Technical Details

Classification Payload
Mass 260.00 kg
Dry Mass 248.00 kg
Total Mass 260.00 kg
Length 0.20 m
Diameter 2.80 m
Span 9.00 m
Shape Box + pan
Manufacturer SPXS
Bus Type Starlink
Phase Status In Orbit
Owner/State SPXS/US

Large Constellations

Loading constellations...